Location: Gugi
(45.4667°N, 11.1000°E)
Time: 08:51:09
(UTC+00:00)

CZ-4 R/B - Pass Details

Date: 17 November 2019
Orbit: 529 x 601 km, 97.8° (Epoch: 07 December)

Event Time Altitude Azimuth Distance (km) Brightness Sun altitude
Rises 16:54:48 0° 146° (SE) 2,815 4.7 -12.5°
Reaches altitude 10° 16:57:05 10° 138° (SE) 1,909 3.8 -12.8°
Maximum altitude 17:00:54 38° 71° (ENE) 898 1.9 -13.5°
Drops below altitude 10° 17:04:42 10° 3° (N) 1,886 3.9 -14.1°
Sets 17:06:56 0° 355° (N) 2,776 4.8 -14.5°
